Location: Almena City Lake
(39.8850°N, 99.6804°W)
Time: 19:57:57
(UTC+00:00)

Cosmos 1862 - Pass Details

Date: 18 February 2020
Orbit: 539 x 556 km, 82.5° (Epoch: 05 April)

Event Time Altitude Azimuth Distance (km) Brightness Sun altitude
Rises 01:11:46 0° 176° (S) 2,708 6.9 -11.2°
Reaches altitude 10° 01:13:57 10° 172° (S) 1,816 6.0 -11.6°
Maximum altitude 01:17:51 56° 94° (E) 653 3.3 -12.4°
Drops below altitude 10° 01:21:47 10° 16° (NNE) 1,820 5.8 -13.1°
Sets 01:23:58 0° 13° (NNE) 2,715 6.7 -13.5°
